EW1931 Weather Reports


time (UTC)temp
F
wind
direction
speed
knots
gust
knots
rain 1hr
in
rain 24hr
in
rain mn
in
humidity
%
barometer
mb
20260905023043 61 11 5.2 7.8 0.00 0.00 0.00 45 1010.9
20260905021523 64 341 5.2 7.0 0.00 0.00 0.00 42 1010.9
20260905020025 66 355 6.1 10.4 0.00 0.00 0.00 40 1010.2
20260905014559 67 342 7.8 15.6 0.00 0.00 0.00 38 1009.7
20260905013101 68 5 8.7 17.4 0.00 0.00 0.00 37 1009.4
20260905011539 69 334 14.8 20.9 0.00 0.00 0.00 35 1008.8
20260905010038 71 336 13.9 19.1 0.00 0.00 0.00 34 1008.9
20260905004521 71 351 14.8 20.0 0.00 0.00 0.00 34 1008.9
20260905003020 71 25 12.2 19.1 0.00 0.00 0.00 33 1009.1
20260905001502 72 331 14.8 20.9 0.00 0.00 0.00 33 1008.7
20260905000100 72 348 16.5 21.7 0.00 0.00 0.00 33 1008.7
20260904234547 73 329 15.6 24.3 0.00 0.00 0.00 32 1008.3
20260904233039 75 327 16.5 23.5 0.00 0.00 0.00 31 1008.4
20260904231521 76 336 14.8 27.8 0.00 0.00 0.00 31 1008.3
20260904230020 76 294 13.9 20.9 0.00 0.00 0.00 31 1008.3
20260904224507 75 308 12.2 22.6 0.00 0.00 0.00 30 1008.2
20260904223007 75 296 14.8 20.0 0.00 0.00 0.00 31 1008.2
20260904221505 76 304 15.6 20.0 0.00 0.00 0.00 31 1008.1
20260904220004 76 290 13.9 21.7 0.00 0.00 0.00 30 1007.9
20260904214506 76 307 17.4 21.7 0.00 0.00 0.00 30 1007.9
20260904213108 77 316 16.5 20.9 0.00 0.00 0.00 30 1007.5
20260904211601 77 271 15.6 21.7 0.00 0.00 0.00 30 1007.1
20260904210107 76 279 17.4 23.5 0.00 0.00 0.00 30 1007.1
20260904204536 76 296 14.8 20.9 0.00 0.00 0.00 30 1007.0
20260904203043 75 292 16.5 21.7 0.00 0.00 0.00 31 1006.8
20260904201516 75 290 12.2 21.7 0.00 0.00 0.00 32 1006.8
20260904200016 73 257 12.2 18.2 0.00 0.00 0.00 33 1006.8
20260904194555 73 309 13.0 17.4 0.00 0.00 0.00 35 1006.6
20260904193057 72 258 13.0 17.4 0.00 0.00 0.00 36 1006.4
20260904191533 71 259 11.3 16.5 0.00 0.00 0.00 37 1006.2
20260904190029 70 262 12.2 16.5 0.00 0.00 0.00 37 1006.1
20260904184511 70 240 12.2 16.5 0.00 0.00 0.00 38 1006.1
20260904183010 69 237 13.0 16.5 0.00 0.00 0.00 40 1006.0
20260904181550 70 246 13.0 18.2 0.00 0.00 0.00 40 1006.0
20260904180049 68 244 10.4 15.6 0.00 0.00 0.00 40 1005.9
20260904174528 67 251 9.6 13.0 0.00 0.00 0.00 42 1005.8
20260904173031 66 242 7.0 11.3 0.00 0.00 0.00 42 1005.6
20260904171502 65 259 9.6 14.8 0.00 0.00 0.00 45 1005.6
20260904170100 64 261 10.4 16.5 0.00 0.00 0.00 49 1005.7
20260904164540 64 257 11.3 16.5 0.00 0.00 0.00 47 1005.6
20260904163040 63 244 11.3 18.2 0.00 0.00 0.00 47 1005.4
20260904161518 66 232 12.2 17.4 0.00 0.00 0.00 42 1005.1
20260904160027 67 220 7.8 10.4 0.00 0.00 0.00 41 1004.8
20260904154601 65 269 3.5 5.2 0.00 0.00 0.00 48 1004.5
20260904153101 64 14 3.5 5.2 0.00 0.00 0.00 48 1004.0
20260904151542 62 30 2.6 5.2 0.00 0.00 0.00 51 1004.1
20260904150045 61 45 4.3 6.1 0.00 0.00 0.00 52 1004.1
20260904144522 60 60 3.5 5.2 0.00 0.00 0.00 55 1004.1
20260904143023 60 48 4.3 6.1 0.00 0.00 0.00 55 1004.2
20260904141507 58 18 3.5 4.3 0.00 0.00 0.00 59 1004.4
20260904140004 57 18 1.7 4.3 0.00 0.00 0.00 61 1004.5
20260904134550 55 18 2.6 6.1 0.00 0.00 0.00 62 1004.5
20260904133052 54 5 3.5 6.1 0.00 0.00 0.00 64 1004.6
20260904131528 52 18 4.3 7.0 0.00 0.00 0.00 67 1004.3
20260904130043 51 13 6.1 8.7 0.00 0.00 0.00 69 1004.3
20260904124510 51 22 6.1 7.8 0.00 0.00 0.00 68 1004.0
20260904123008 51 35 5.2 7.8 0.00 0.00 0.00 66 1004.0
20260904121550 52 38 6.1 8.7 0.00 0.00 0.00 66 1004.1
20260904120054 53 34 5.2 7.0 0.00 0.00 0.00 65 1004.2
20260904114531 54 40 5.2 7.8 0.00 0.00 0.00 63 1004.2
20260904113034 54 5 6.1 8.7 0.00 0.00 0.00 63 1004.3
20260904111522 54 13 7.8 11.3 0.00 0.00 0.00 63 1004.3
20260904110010 54 20 6.1 9.6 0.00 0.00 0.00 62 1004.6
20260904104612 54 17 6.1 9.6 0.00 0.00 0.00 61 1004.7
20260904103051 55 15 6.1 9.6 0.00 0.00 0.00 61 1004.9
20260904101551 55 26 5.2 9.6 0.00 0.00 0.00 59 1004.9
20260904100033 55 14 6.1 9.6 0.00 0.00 0.00 59 1005.0
20260904094533 55 360 7.0 9.6 0.00 0.00 0.00 58 1005.0
20260904093015 55 22 5.2 9.6 0.00 0.00 0.00 59 1005.0
20260904091515 52 30 6.1 8.7 0.00 0.00 0.00 64 1005.2
20260904090058 51 13 4.3 6.1 0.00 0.00 0.00 65 1005.3
20260904084557 52 40 4.3 7.8 0.00 0.00 0.00 64 1005.6
20260904083037 52 26 7.8 9.6 0.00 0.00 0.00 63 1005.9
20260904081534 53 11 7.8 10.4 0.00 0.00 0.00 62 1006.1
20260904080014 53 12 7.0 9.6 0.00 0.00 0.00 62 1006.3
20260904074512 53 25 7.0 8.7 0.00 0.00 0.00 61 1006.4
20260904073059 54 15 7.0 9.6 0.00 0.00 0.00 60 1006.4
20260904071555 53 38 8.7 11.3 0.00 0.00 0.00 61 1006.5
20260904070039 53 44 8.7 10.4 0.00 0.00 0.00 63 1006.5
20260904064534 53 35 7.0 8.7 0.00 0.00 0.00 62 1006.5
20260904063013 56 44 7.0 10.4 0.00 0.00 0.00 56 1006.6
20260904061524 58 41 7.8 9.6 0.00 0.00 0.00 53 1006.7
20260904054555 58 22 6.1 9.6 0.00 0.00 0.00 53 1006.8
20260904053037 59 5 6.1 9.6 0.00 0.00 0.00 52 1006.8
20260904051555 58 11 6.1 9.6 0.00 0.00 0.00 52 1006.9
20260904050024 58 25 7.0 9.6 0.00 0.00 0.00 53 1006.8
20260904044525 57 23 6.1 7.8 0.00 0.00 0.00 55 1007.0
20260904043024 56 343 5.2 8.7 0.00 0.00 0.00 55 1007.0
20260904041523 56 20 4.3 9.6 0.00 0.00 0.00 55 1007.2
20260904040025 57 351 7.0 9.6 0.00 0.00 0.00 54 1007.1
20260904034522 56 15 5.2 8.7 0.00 0.00 0.00 55 1007.2
20260904033020 55 5 6.1 7.8 0.00 0.00 0.00 56 1007.2
20260904031515 57 19 4.3 7.8 0.00 0.00 0.00 52 1007.1
20260904030055 60 24 6.1 8.7 0.00 0.00 0.00 47 1007.0
20260904024554 63 13 7.0 13.0 0.00 0.00 0.00 44 1006.8